Twenthe, Netherlands

11:56 AM CEST on April 24, 2017 (GMT +0200)
Twenthe

Weather History for EHTW - April, 2014

Change the Weather History Date:

Wednesday, April 16, 2014

  Actual Average Record
Temperature  
Mean Temperature 42 °F -  
Max Temperature 58 °F 59 °F 80 °F (2007)
Min Temperature 26 °F 41 °F 26 °F (2014)
Degree Days  
Heating Degree Days 23    
Moisture  
Dew Point 31 °F    
Average Humidity 59    
Maximum Humidity 99    
Minimum Humidity 19    
Precipitation  
Precipitation 0.00 in - - ()
Sea Level Pressure  
Sea Level Pressure 30.42 in    
Wind  
Wind Speed 1 mph ()    
Max Wind Speed 4 mph    
Max Gust Speed -    
Visibility 9.5 miles    
Events Fog    
Averages and records for this station are not official NWS values.
T = Trace of Precipitation, MM = Missing Value Source: Averaged Metar Reports

Daily Weather History Graph

Daily Weather History Graph

Search for Another Location

Airport or City:

Trip Planner

Search our weather history database for the weather conditions in past years. The results will help you decide how hot, cold, wet, or windy it might be!

Date:

Astronomy

Apr. 16, 2014 Rise Set
Actual Time 6:33 AM CEST 8:32 PM CEST
Civil Twilight 5:57 AM CEST 9:08 PM CEST
Nautical Twilight 5:12 AM CEST 9:54 PM CEST
Astronomical Twilight 4:20 AM CEST 10:46 PM CEST
Moon 10:09 PM CEST (4/16) 7:03 AM CEST (4/16)
Length of Visible Light 15h 11m
Length of Day
13h 58m
Full, 99% of the Moon is Illuminated
Apr 16
Full
Apr 22
Last Quarter
Apr 29
New
May 7
First Quarter
May 14
Full

Hourly Weather History & Observations

Time (CEST) Temp. Dew Point Humidity Pressure Visibility Wind Dir Wind Speed Gust Speed Precip Events Conditions
12:00 AM 35 °F 31 °F 82% 30.41 in 11 mi Calm Calm - -  
1:00 AM 32 °F 31 °F 95% 30.41 in 8 mi Calm Calm - -  
2:00 AM 31 °F 30 °F 96% 30.42 in 6 mi Calm Calm - -   Partly Cloudy
3:00 AM 30 °F 30 °F 98% 30.42 in 4 mi Calm Calm - -   Mist
4:00 AM 30 °F 30 °F 99% 30.43 in 3 mi Calm Calm - -   Mist
5:00 AM 29 °F 28 °F 95% 30.43 in 1 mi Calm Calm - - Fog Fog
6:00 AM 28 °F 27 °F 95% 30.45 in 1 mi Calm Calm - -   Mist
7:00 AM 28 °F 26 °F 89% 30.45 in 4 mi Calm Calm - - Fog Fog
8:00 AM 33 °F 32 °F 94% 30.46 in 7 mi Calm Calm - -   Partly Cloudy
9:00 AM 42 °F 38 °F 80% 30.47 in 11 mi 2.2 mph - -  
10:00 AM 47 °F 38 °F 60% 30.48 in 15 mi 2.2 mph - -  
11:00 AM 51 °F 36 °F 44% 30.47 in 16 mi South 4.5 mph - -  
12:00 PM 54 °F 33 °F 32% 30.46 in 17 mi SE 4.5 mph - -   Scattered Clouds
1:00 PM 54 °F 30 °F 27% 30.45 in 19 mi East 4.5 mph - -  
2:00 PM 55 °F 27 °F 22% 30.45 in 22 mi South 4.5 mph - -   Partly Cloudy
3:00 PM 56 °F 27 °F 21% 30.43 in 22 mi SE 4.5 mph - -  
4:00 PM 57 °F 26 °F 19% 30.42 in 19 mi ESE 4.5 mph - -  
5:00 PM 58 °F 28 °F 20% 30.40 in 25 mi SE 4.5 mph - -  
6:00 PM 57 °F 27 °F 20% 30.38 in 25 mi East 4.5 mph - -  
7:00 PM 57 °F 30 °F 24% 30.37 in 25 mi SSE 4.5 mph - -  
8:00 PM 54 °F 31 °F 29% 30.37 in 28 mi ESE 2.2 mph - -   Partly Cloudy
9:00 PM 48 °F 34 °F 47% 30.36 in 28 mi ESE 4.5 mph - -  
10:00 PM 43 °F 34 °F 60% 30.36 in 28 mi NE 2.2 mph - -  
11:00 PM 40 °F 33 °F 66% 30.35 in 28 mi ESE 2.2 mph - -   Scattered Clouds